This is the latest recevied weather packets stored in our database for station/object W5ADC. If no packets are shown the sender has not sent any weather packets the latest 10 day(s).
| Time | Temp. | Humidity | Pressure | Rain* | Wind** | Luminosity | Snow |
|---|---|---|---|---|---|---|---|
| 1787876428 | 35° C | 40% | 1009.7 hPa | 0 mm | - | 32 W/m² | - |
| 1787876127 | 35° C | 41% | 1009.6 hPa | 0 mm | - | 35 W/m² | - |
| 1787875822 | 35° C | 41% | 1009.5 hPa | 0 mm | - | 37 W/m² | - |
| 1787875521 | 35° C | 41% | 1009.3 hPa | 0 mm | - | 39 W/m² | - |
| 1787875215 | 35.56° C | 41% | 1009.5 hPa | 0 mm | - | 42 W/m² | - |
| 1787874914 | 35.56° C | 42% | 1009.4 hPa | 0 mm | - | 45 W/m² | - |
| 1787874609 | 35.56° C | 41% | 1009.6 hPa | 0 mm | - | 45 W/m² | - |
| 1787874303 | 35.56° C | 41% | 1009.3 hPa | 0 mm | - | 46 W/m² | - |
| 1787874003 | 35.56° C | 41% | 1009.4 hPa | 0 mm | - | 50 W/m² | - |
| 1787873702 | 36.11° C | 40% | 1009.3 hPa | 0 mm | - | 53 W/m² | - |
| 1787873396 | 36.67° C | 39% | 1009.3 hPa | 0 mm | - | 62 W/m² | - |
| 1787873091 | 36.67° C | 38% | 1009.2 hPa | 0 mm | - | 133 W/m² | - |
| 1787872785 | 36.67° C | 37% | 1009.5 hPa | 0 mm | - | 138 W/m² | - |
| 1787872481 | 36.67° C | 37% | 1009.5 hPa | 0 mm | - | 157 W/m² | - |
| 1787872176 | 36.67° C | 37% | 1009.4 hPa | 0 mm | - | 173 W/m² | - |
| 1787871875 | 36.67° C | 37% | 1009.5 hPa | 0 mm | - | 96 W/m² | - |
| 1787871570 | 36.67° C | 37% | 1009.6 hPa | 0 mm | - | 209 W/m² | - |
| 1787871266 | 36.67° C | 37% | 1009.5 hPa | 0 mm | - | 222 W/m² | - |
| 1787870961 | 37.22° C | 37% | 1009.6 hPa | 0 mm | - | 235 W/m² | - |
| 1787870655 | 37.22° C | 37% | 1009.7 hPa | 0 mm | - | 252 W/m² | - |
| 1787870350 | 36.67° C | 37% | 1009.6 hPa | 0 mm | - | 257 W/m² | - |
| 1787870045 | 36.67° C | 38% | 1009.6 hPa | 0 mm | - | 287 W/m² | - |
| 1787869744 | 36.67° C | 40% | 1009.6 hPa | 0 mm | - | 318 W/m² | - |
| 1787869443 | 36.67° C | 40% | 1009.7 hPa | 0 mm | - | 330 W/m² | - |
| 1787869138 | 36.67° C | 39% | 1009.7 hPa | 0 mm | - | 342 W/m² | - |
* Rain latest hour (hover to see other rain measurements)
** Current wind speed in m/s (hover to see current wind gust speed)